Radiation Dose at Monitoring Post of Fukushima Daini Nuclear Power Station
Date,Time,MP-1(microSv/h),MP-2(microSv/h),MP-3(microSv/h),MP-4(microSv/h),MP-5(microSv/h),MP-6(microSv/h),MP-7(microSv/h),Wind Direction,Wind Velocity(m/s),Rain
2015/10/02,00:00,0.473,0.274,0.492,0.450,0.446,0.224,0.193,south,12.5,No
2015/10/02,00:10,0.480,0.278,0.492,0.458,0.442,0.222,0.193,south,11.5,No
2015/10/02,00:20,0.473,0.275,0.494,0.453,0.450,0.224,0.193,south,11.7,No
2015/10/02,00:30,0.476,0.276,0.490,0.454,0.444,0.224,0.191,south,9.9,No
2015/10/02,00:40,0.478,0.277,0.494,0.457,0.443,0.221,0.192,south,7.9,No
2015/10/02,00:50,0.474,0.275,0.494,0.450,0.447,0.223,0.192,south-southwest,9.4,No
2015/10/02,01:00,0.477,0.277,0.489,0.454,0.441,0.223,0.192,south-southwest,11.0,No
2015/10/02,01:10,0.479,0.277,0.494,0.456,0.447,0.222,0.193,south-southwest,9.6,No
2015/10/02,01:20,0.473,0.275,0.492,0.451,0.446,0.223,0.192,south,10.2,No
2015/10/02,01:30,0.477,0.276,0.489,0.456,0.441,0.224,0.193,south-southwest,11.6,No
2015/10/02,01:40,0.478,0.277,0.496,0.455,0.449,0.223,0.192,south-southwest,10.4,No
2015/10/02,01:50,0.474,0.276,0.491,0.451,0.445,0.224,0.192,south-southwest,11.4,No
2015/10/02,02:00,0.479,0.280,0.491,0.458,0.443,0.222,0.193,south-southwest,10.4,No
2015/10/02,02:10,0.479,0.277,0.497,0.456,0.449,0.224,0.194,south-southwest,10.7,No
2015/10/02,02:20,0.473,0.274,0.492,0.450,0.445,0.223,0.191,south-southwest,11.5,No
2015/10/02,02:30,0.481,0.278,0.489,0.457,0.442,0.223,0.194,south-southwest,9.8,No
2015/10/02,02:40,0.479,0.277,0.499,0.456,0.450,0.224,0.192,south-southwest,11.0,No
2015/10/02,02:50,0.474,0.276,0.494,0.450,0.444,0.224,0.192,south-southwest,9.9,No
2015/10/02,03:00,0.479,0.278,0.490,0.458,0.441,0.223,0.193,south-southwest,8.7,Yes
2015/10/02,03:10,0.478,0.277,0.498,0.455,0.448,0.224,0.193,south-southwest,8.1,No
2015/10/02,03:20,0.475,0.276,0.495,0.452,0.445,0.222,0.192,south-southwest,10.6,Yes
2015/10/02,03:30,0.479,0.279,0.491,0.457,0.441,0.223,0.193,south-southwest,9.8,No
2015/10/02,03:40,0.479,0.277,0.497,0.458,0.450,0.224,0.194,south-southwest,9.7,Yes
2015/10/02,03:50,0.477,0.276,0.495,0.452,0.445,0.224,0.193,south-southwest,10.9,Yes
2015/10/02,04:00,0.478,0.279,0.490,0.459,0.444,0.223,0.194,south-southwest,10.3,No
2015/10/02,04:10,0.480,0.277,0.499,0.457,0.449,0.225,0.192,south-southwest,9.5,Yes
2015/10/02,04:20,0.476,0.277,0.495,0.454,0.446,0.225,0.194,south-southwest,7.8,Yes
2015/10/02,04:30,0.479,0.281,0.492,0.459,0.444,0.224,0.194,south-southwest,7.8,Yes
2015/10/02,04:40,0.482,0.279,0.498,0.458,0.448,0.226,0.193,south-southwest,8.8,Yes
2015/10/02,04:50,0.473,0.275,0.490,0.446,0.440,0.222,0.193,west-southwest,6.4,Yes
2015/10/02,05:00,0.474,0.278,0.486,0.450,0.442,0.221,0.191,west-northwest,6.1,Yes
2015/10/02,05:10,0.474,0.276,0.493,0.449,0.445,0.225,0.191,west,8.9,Yes
2015/10/02,05:20,0.470,0.278,0.489,0.446,0.440,0.222,0.192,west-northwest,5.6,Yes
2015/10/02,05:30,0.478,0.277,0.487,0.454,0.448,0.223,0.191,west-northwest,5.4,Yes
2015/10/02,05:40,0.476,0.275,0.493,0.452,0.446,0.223,0.192,west,4.2,Yes
2015/10/02,05:50,0.471,0.278,0.488,0.452,0.444,0.224,0.192,west-southwest,3.6,Yes
2015/10/02,06:00,0.479,0.276,0.492,0.453,0.448,0.224,0.192,west-northwest,6.7,Yes
2015/10/02,06:10,0.475,0.278,0.495,0.450,0.444,0.223,0.191,west,4.5,No
2015/10/02,06:20,0.477,0.278,0.489,0.455,0.449,0.223,0.190,west,4.7,No
2015/10/02,06:30,0.480,0.276,0.493,0.450,0.447,0.222,0.192,west-southwest,3.9,No
2015/10/02,06:40,0.471,0.277,0.488,0.452,0.443,0.221,0.191,west,5.3,No
2015/10/02,06:50,0.480,0.276,0.491,0.454,0.449,0.221,0.190,west-northwest,7.4,No
2015/10/02,07:00,0.476,0.276,0.491,0.450,0.443,0.222,0.191,west,9.6,No
2015/10/02,07:10,0.474,0.277,0.489,0.454,0.443,0.222,0.190,west-northwest,11.5,No
2015/10/02,07:20,0.481,0.275,0.495,0.450,0.444,0.221,0.191,west-northwest,12.2,No
2015/10/02,07:30,0.477,0.278,0.491,0.453,0.443,0.222,0.189,west-northwest,12.9,No
2015/10/02,07:40,0.473,0.277,0.492,0.452,0.447,0.223,0.190,west-northwest,13.5,No
2015/10/02,07:50,0.481,0.275,0.495,0.449,0.443,0.222,0.191,west-northwest,11.7,No
2015/10/02,08:00,0.475,0.277,0.489,0.455,0.441,0.223,0.191,west-northwest,10.1,No
2015/10/02,08:10,0.477,0.277,0.494,0.451,0.449,0.222,0.191,west-northwest,11.3,No
2015/10/02,08:20,0.481,0.276,0.493,0.453,0.443,0.222,0.191,west-northwest,12.9,No
2015/10/02,08:30,0.477,0.279,0.488,0.455,0.446,0.224,0.190,west,12.8,No
2015/10/02,08:40,0.481,0.275,0.498,0.451,0.448,0.223,0.192,west-northwest,14.2,No
2015/10/02,08:50,0.482,0.277,0.493,0.455,0.442,0.222,0.191,west,14.4,No
2015/10/02,09:00,0.477,0.280,0.492,0.454,0.447,0.225,0.191,west-northwest,9.3,No
2015/10/02,09:10,0.478,0.278,0.497,0.452,0.446,0.223,0.189,west-northwest,12.4,No
2015/10/02,09:20,0.482,0.276,0.493,0.448,0.440,0.223,0.191,west-northwest,10.8,No
2015/10/02,09:30,0.482,0.278,0.496,0.451,0.446,0.223,0.193,west-northwest,11.7,No
2015/10/02,09:40,0.477,0.279,0.496,0.455,0.448,0.225,0.193,west-northwest,9.1,No
2015/10/02,09:50,0.476,0.277,0.492,0.453,0.445,0.224,0.192,west,11.0,No
2015/10/02,10:00,0.486,0.278,0.498,0.452,0.442,0.224,0.191,northwest,9.0,No
2015/10/02,10:10,0.483,0.280,0.497,0.451,0.451,0.224,0.191,west,5.9,No
2015/10/02,10:20,0.481,0.278,0.493,0.458,0.449,0.224,0.193,west-southwest,4.2,No
2015/10/02,10:30,0.486,0.279,0.499,0.453,0.445,0.224,0.192,southwest,4.5,No
2015/10/02,10:40,0.482,0.281,0.494,0.456,0.453,0.224,0.192,northwest,1.2,No
2015/10/02,10:50,0.482,0.277,0.496,0.459,0.447,0.224,0.193,east-southeast,0.5,No
2015/10/02,11:00,0.487,0.277,0.497,0.455,0.447,0.224,0.193,northeast,0.7,No
2015/10/02,11:10,0.481,0.281,0.492,0.455,0.450,0.224,0.192,north,5.0,No
2015/10/02,11:20,0.480,0.277,0.495,0.459,0.445,0.224,0.194,northwest,4.4,No
2015/10/02,11:30,0.486,0.277,0.496,0.455,0.443,0.225,0.192,west-northwest,5.5,No
2015/10/02,11:40,0.482,0.280,0.493,0.451,0.441,0.223,0.194,west,3.0,No
2015/10/02,11:50,0.480,0.279,0.490,0.450,0.450,0.223,0.193,northwest,2.8,No
2015/10/02,12:00,0.476,0.278,0.489,0.451,0.450,0.224,0.193,northwest,6.8,No
2015/10/02,12:10,0.480,0.276,0.489,0.450,0.448,0.224,0.191,northwest,7.0,No
2015/10/02,12:20,0.485,0.278,0.489,0.451,0.445,0.224,0.191,northwest,7.5,No
2015/10/02,12:30,0.482,0.278,0.497,0.451,0.442,0.223,0.192,west-northwest,6.3,No
2015/10/02,12:40,0.479,0.279,0.496,0.450,0.442,0.223,0.192,northwest,6.2,No
2015/10/02,12:50,0.488,0.277,0.493,0.458,0.450,0.226,0.191,west-northwest,8.5,No
2015/10/02,13:00,0.486,0.278,0.493,0.458,0.449,0.227,0.193,west-northwest,5.3,No
2015/10/02,13:10,0.481,0.280,0.491,0.457,0.447,0.225,0.194,northwest,3.2,No
2015/10/02,13:20,0.485,0.279,0.491,0.455,0.444,0.226,0.194,northwest,4.5,No
2015/10/02,13:30,0.486,0.278,0.492,0.454,0.443,0.225,0.192,northwest,5.1,No
2015/10/02,13:40,0.482,0.278,0.496,0.453,0.444,0.225,0.192,northwest,5.6,No
2015/10/02,13:50,0.483,0.282,0.498,0.455,0.445,0.226,0.193,west-northwest,5.1,No
2015/10/02,14:00,0.488,0.280,0.496,0.461,0.450,0.225,0.193,west-northwest,3.8,No
2015/10/02,14:10,0.482,0.278,0.494,0.460,0.450,0.225,0.193,west-northwest,4.3,No
2015/10/02,14:20,0.483,0.277,0.493,0.458,0.446,0.226,0.195,west-northwest,4.1,No
2015/10/02,14:30,0.491,0.279,0.493,0.461,0.445,0.226,0.194,west-northwest,9.2,No
2015/10/02,14:40,0.485,0.280,0.501,0.460,0.452,0.226,0.195,west-northwest,5.2,No
2015/10/02,14:50,0.482,0.280,0.503,0.456,0.452,0.225,0.194,west-northwest,3.9,No
2015/10/02,15:00,0.488,0.278,0.497,0.462,0.446,0.227,0.193,northwest,5.8,No
2015/10/02,15:10,0.483,0.281,0.504,0.459,0.454,0.225,0.195,northwest,7.9,No
2015/10/02,15:20,0.483,0.280,0.500,0.457,0.453,0.226,0.195,northwest,8.6,No
2015/10/02,15:30,0.491,0.280,0.497,0.463,0.448,0.225,0.194,north-northwest,9.4,No
2015/10/02,15:40,0.483,0.281,0.502,0.458,0.453,0.226,0.196,north-northwest,12.2,No
2015/10/02,15:50,0.486,0.279,0.499,0.460,0.449,0.226,0.194,northwest,9.3,No
2015/10/02,16:00,0.487,0.282,0.502,0.460,0.450,0.226,0.195,northwest,7.5,No
2015/10/02,16:10,0.483,0.278,0.500,0.456,0.452,0.226,0.194,northwest,8.6,No
2015/10/02,16:20,0.487,0.282,0.498,0.461,0.448,0.227,0.195,north-northwest,7.6,No
2015/10/02,16:30,0.485,0.281,0.502,0.455,0.453,0.226,0.195,north-northwest,8.2,No
2015/10/02,16:40,0.488,0.280,0.497,0.460,0.447,0.226,0.194,northwest,7.2,No
2015/10/02,16:50,0.486,0.281,0.502,0.457,0.453,0.227,0.195,northwest,6.0,No
2015/10/02,17:00,0.483,0.280,0.500,0.460,0.449,0.226,0.194,west-northwest,6.0,No
2015/10/02,17:10,0.489,0.281,0.498,0.457,0.449,0.227,0.195,northwest,6.4,No
2015/10/02,17:20,0.483,0.280,0.501,0.459,0.451,0.225,0.194,northwest,7.8,No
2015/10/02,17:30,0.489,0.281,0.497,0.461,0.449,0.226,0.196,west-northwest,7.2,No
2015/10/02,17:40,0.487,0.278,0.502,0.457,0.451,0.227,0.195,north-northwest,2.9,No
2015/10/02,17:50,0.487,0.280,0.497,0.462,0.448,0.226,0.196,west-northwest,5.4,No
2015/10/02,18:00,0.488,0.278,0.501,0.458,0.451,0.227,0.194,northwest,4.1,No
2015/10/02,18:10,0.486,0.280,0.500,0.462,0.447,0.226,0.195,northwest,4.4,No
2015/10/02,18:20,0.488,0.279,0.500,0.456,0.452,0.227,0.195,north-northwest,2.2,No
2015/10/02,18:30,0.486,0.280,0.497,0.461,0.447,0.225,0.195,north,1.0,No
2015/10/02,18:40,0.487,0.280,0.499,0.459,0.452,0.225,0.195,north,0.5,No
2015/10/02,18:50,0.483,0.281,0.499,0.462,0.446,0.227,0.195,northeast,0.9,No
2015/10/02,19:00,0.488,0.280,0.500,0.457,0.451,0.225,0.194,north,1.4,No
2015/10/02,19:10,0.485,0.278,0.500,0.461,0.446,0.227,0.195,north,0.7,No
2015/10/02,19:20,0.489,0.281,0.500,0.458,0.452,0.225,0.194,-,CALM,No
2015/10/02,19:30,0.483,0.280,0.499,0.461,0.446,0.227,0.194,southeast,0.6,No
2015/10/02,19:40,0.487,0.279,0.499,0.458,0.451,0.226,0.194,south-southeast,0.6,No
2015/10/02,19:50,0.485,0.280,0.503,0.461,0.449,0.227,0.196,south,0.7,No
2015/10/02,20:00,0.487,0.281,0.498,0.458,0.452,0.226,0.196,west-southwest,2.0,No
2015/10/02,20:10,0.485,0.280,0.501,0.461,0.449,0.226,0.195,west,3.0,No
2015/10/02,20:20,0.485,0.280,0.498,0.458,0.451,0.226,0.195,west,1.4,No
2015/10/02,20:30,0.485,0.279,0.499,0.459,0.449,0.226,0.195,west,0.8,No
2015/10/02,20:40,0.486,0.280,0.498,0.459,0.449,0.227,0.196,southwest,0.8,No
2015/10/02,20:50,0.485,0.281,0.499,0.461,0.449,0.225,0.194,south-southwest,1.4,No
2015/10/02,21:00,0.483,0.279,0.499,0.459,0.448,0.226,0.195,south-southwest,1.0,No
2015/10/02,21:10,0.485,0.282,0.499,0.459,0.450,0.226,0.195,south,0.8,No
2015/10/02,21:20,0.483,0.281,0.501,0.460,0.447,0.226,0.194,south,0.8,No
2015/10/02,21:30,0.486,0.282,0.498,0.458,0.452,0.226,0.196,southwest,0.7,No
2015/10/02,21:40,0.482,0.280,0.500,0.460,0.446,0.226,0.195,west,0.7,No
2015/10/02,21:50,0.487,0.280,0.498,0.459,0.451,0.226,0.195,south-southeast,1.0,No
2015/10/02,22:00,0.484,0.279,0.499,0.459,0.447,0.225,0.196,east-southeast,1.0,No
2015/10/02,22:10,0.488,0.279,0.497,0.458,0.451,0.227,0.195,southeast,2.2,No
2015/10/02,22:20,0.484,0.280,0.501,0.458,0.446,0.225,0.196,south,2.6,No
2015/10/02,22:30,0.487,0.279,0.499,0.459,0.451,0.226,0.196,southwest,5.0,No
2015/10/02,22:40,0.481,0.280,0.500,0.463,0.447,0.226,0.195,southwest,7.2,No
2015/10/02,22:50,0.487,0.278,0.499,0.459,0.452,0.226,0.196,south-southwest,8.1,No
2015/10/02,23:00,0.483,0.281,0.500,0.462,0.447,0.226,0.196,south-southwest,7.1,No
2015/10/02,23:10,0.487,0.280,0.499,0.460,0.453,0.227,0.196,south-southwest,6.8,No
2015/10/02,23:20,0.483,0.282,0.501,0.463,0.450,0.226,0.196,south-southwest,5.2,No
2015/10/02,23:30,0.489,0.280,0.499,0.458,0.452,0.226,0.195,south-southwest,5.2,No
2015/10/02,23:40,0.485,0.280,0.499,0.462,0.448,0.226,0.196,south-southwest,4.8,No
2015/10/02,23:50,0.488,0.279,0.498,0.458,0.451,0.225,0.194,south-southwest,4.5,No
